{"data":{"norad_id":58869,"intl_designator":"2024-019S","name":"STARLINK-31203","alt_names":[],"object_type":"PAYLOAD","status":"ACTIVE","operator":null,"country":"US","launch_date":"2024-01-29","launch_site_code":"AFETR","launch_vehicle":null,"mission":null,"orbit_class":"UNKNOWN","rcs_meters":null,"size_class":null,"mass_kg":null,"dimensions":null,"purposes":["comms"],"wikipedia_slug":null,"has_3d_model":false,"image_url":null,"decayed_at":null,"tle_current":{"epoch":"2026-09-20T22:20:07.131840Z","epoch_age_seconds":115324,"freshness":"FRESH","line1":"1 58869U 24019S   26263.93063810 -.00000054  00000+0  75737-5 0  9994","line2":"2 58869  43.0024 222.6764 0000841 266.0864  93.9892 15.27575454148980","mean_motion":15.27575454,"eccentricity":8.41e-5,"inclination_deg":43.0024,"raan_deg":222.6764,"arg_perigee_deg":266.0864,"mean_anomaly_deg":93.9892,"bstar":7.5737e-6,"rev_number":14898,"period_min":94.267029247512,"perigee_km":482.48568153735,"apogee_km":483.63973532831,"semimajor_km":6861.1997084328,"source":"CELESTRAK","updated_at":"2026-09-21T09:00:33.990197Z"}}}